When you browse on this site, cookies collect data to enhance your experience and personalize the content and advertising you see.
Visit our Privacy Policy to learn more. By continuing to use the site, you agree to this use of cookies and data.
  • în România
  • Lista ţărilor
  • Pe 7 zile
  • Temperatura apei
  • Hartă satelitară
  • Meteo pe hartă
  • Widget-uri
  • user-avatar
    Intrare

    Meteo pe oră la Kaftyrevo

    Astăzi, 16 Ianuarie, Miercuri

    Timp Temperatura Precipitaţii Vânt Presiune Umiditate
    00:00 -10°C° 0 mm 4 m/s 720 mmHg 91%
    01:00 -9°C° 0 mm 3 m/s 720 mmHg 91%
    02:00 -9°C° 0 mm 3 m/s 720 mmHg 92%
    03:00 -10°C° 0 mm 3 m/s 720 mmHg 92%
    04:00 -10°C° 0 mm 3 m/s 721 mmHg 92%
    05:00 -10°C° 0 mm 3 m/s 721 mmHg 93%
    06:00 -10°C° 0 mm 3 m/s 721 mmHg 93%
    07:00 -12°C° 0 mm 3 m/s 721 mmHg 94%
    08:00 -12°C° 0 mm 3 m/s 721 mmHg 94%
    09:00 -12°C° 0 mm 3 m/s 722 mmHg 94%
    10:00 -10°C° 0 mm 3 m/s 722 mmHg 93%
    11:00 -10°C° 0 mm 3 m/s 722 mmHg 93%
    12:00 -9°C° 0 mm 3 m/s 722 mmHg 92%
    13:00 -9°C° 0 mm 3 m/s 723 mmHg 91%
    14:00 -8°C° 0 mm 3 m/s 723 mmHg 91%
    15:00 -8°C° 0 mm 3 m/s 723 mmHg 91%
    16:00 -8°C° 0 mm 3 m/s 723 mmHg 92%
    17:00 -8°C° 0 mm 3 m/s 724 mmHg 92%
    18:00 -8°C° 0 mm 3 m/s 724 mmHg 92%
    19:00 -8°C° 0 mm 3 m/s 724 mmHg 92%
    20:00 -7°C° 0 mm 3 m/s 725 mmHg 93%
    21:00 -8°C° 0 mm 3 m/s 725 mmHg 92%
    22:00 -8°C° 0 mm 3 m/s 725 mmHg 91%
    23:00 -8°C° 0 mm 3 m/s 726 mmHg 91%

    Mâine, 17 Ianuarie, Joi

    Timp Temperatura Precipitaţii Vânt Presiune Umiditate
    00:00 -9°C° 0 mm 3 m/s 726 mmHg 91%
    01:00 -10°C° 0 mm 3 m/s 726 mmHg 91%
    02:00 -10°C° 0 mm 3 m/s 726 mmHg 91%
    03:00 -10°C° 0 mm 3 m/s 726 mmHg 92%
    04:00 -12°C° 0 mm 3 m/s 726 mmHg 92%
    05:00 -12°C° 0 mm 3 m/s 726 mmHg 93%
    06:00 -11°C° 0.1 mm 4 m/s 725 mmHg 92%
    07:00 -12°C° 0.1 mm 5 m/s 725 mmHg 91%
    08:00 -12°C° 0.1 mm 5 m/s 724 mmHg 91%
    09:00 -10°C° 0.4 mm 6 m/s 723 mmHg 90%
    10:00 -9°C° 0.4 mm 6 m/s 723 mmHg 90%
    11:00 -8°C° 0.4 mm 6 m/s 722 mmHg 89%
    12:00 -5°C° 0.3 mm 6 m/s 722 mmHg 89%
    13:00 -4°C° 0.3 mm 6 m/s 721 mmHg 88%
    14:00 -2°C° 0.3 mm 6 m/s 721 mmHg 87%
    15:00 -2°C° 0.2 mm 6 m/s 720 mmHg 87%
    16:00 -2°C° 0.2 mm 6 m/s 720 mmHg 87%
    17:00 -2°C° 0.2 mm 6 m/s 719 mmHg 87%
    18:00 -2°C° 0.4 mm 7 m/s 719 mmHg 86%
    19:00 -2°C° 0.4 mm 7 m/s 718 mmHg 86%
    20:00 -2°C° 0.4 mm 7 m/s 718 mmHg 85%
    21:00 -2°C° 0.2 mm 7 m/s 717 mmHg 85%
    22:00 -2°C° 0.2 mm 7 m/s 717 mmHg 84%
    23:00 -2°C° 0.2 mm 7 m/s 717 mmHg 84%

    Poimâine, 18 Ianuarie, Vineri

    Timp Temperatura Precipitaţii Vânt Presiune Umiditate
    00:00 -2°C° 0 mm 7 m/s 718 mmHg 83%
    01:00 -2°C° 0 mm 7 m/s 718 mmHg 82%
    02:00 -2°C° 0 mm 7 m/s 719 mmHg 81%
    03:00 -2°C° 0.2 mm 7 m/s 720 mmHg 83%
    04:00 -2°C° 0.2 mm 6 m/s 720 mmHg 84%
    05:00 -2°C° 0.2 mm 6 m/s 721 mmHg 86%
    06:00 -1°C° 0.1 mm 5 m/s 722 mmHg 86%
    07:00 -1°C° 0.1 mm 5 m/s 722 mmHg 87%
    08:00 -1°C° 0.1 mm 5 m/s 723 mmHg 88%
    09:00 -1°C° 0.1 mm 5 m/s 723 mmHg 88%
    10:00 -2°C° 0.1 mm 5 m/s 724 mmHg 89%
    11:00 -2°C° 0.1 mm 4 m/s 724 mmHg 89%
    12:00 -2°C° 0.5 mm 4 m/s 724 mmHg 91%
    13:00 -2°C° 0.5 mm 3 m/s 724 mmHg 92%
    14:00 -4°C° 0.5 mm 3 m/s 724 mmHg 94%
    15:00 -5°C° 0.5 mm 3 m/s 724 mmHg 94%
    16:00 -7°C° 0.5 mm 3 m/s 724 mmHg 94%
    17:00 -7°C° 0.5 mm 2 m/s 724 mmHg 94%
    18:00 -9°C° 0.3 mm 3 m/s 724 mmHg 93%
    19:00 -9°C° 0.3 mm 3 m/s 724 mmHg 92%
    20:00 -10°C° 0.3 mm 3 m/s 725 mmHg 91%
    21:00 -10°C° 0 mm 3 m/s 725 mmHg 91%
    22:00 -12°C° 0 mm 3 m/s 726 mmHg 91%
    23:00 -12°C° 0 mm 2 m/s 727 mmHg 91%

    19 Ianuarie, Sâmbătă

    Timp Temperatura Precipitaţii Vânt Presiune Umiditate
    00:00 -13°C° 0 mm 3 m/s 727 mmHg 92%
    01:00 -14°C° 0 mm 3 m/s 728 mmHg 93%
    02:00 -15°C° 0 mm 4 m/s 729 mmHg 93%
    03:00 -14°C° 0 mm 4 m/s 729 mmHg 92%
    04:00 -12°C° 0 mm 4 m/s 729 mmHg 90%
    05:00 -10°C° 0 mm 4 m/s 730 mmHg 89%
    06:00 -10°C° 0 mm 4 m/s 730 mmHg 88%
    07:00 -10°C° 0 mm 4 m/s 730 mmHg 88%
    08:00 -10°C° 0 mm 4 m/s 731 mmHg 88%
    09:00 -9°C° 0 mm 4 m/s 731 mmHg 88%
    10:00 -9°C° 0 mm 4 m/s 731 mmHg 87%
    11:00 -8°C° 0 mm 5 m/s 732 mmHg 87%
    12:00 -8°C° 0.1 mm 5 m/s 732 mmHg 86%
    13:00 -8°C° 0.1 mm 5 m/s 732 mmHg 85%
    14:00 -8°C° 0.1 mm 5 m/s 732 mmHg 83%
    15:00 -8°C° 0 mm 5 m/s 732 mmHg 85%
    16:00 -8°C° 0 mm 5 m/s 732 mmHg 86%
    17:00 -9°C° 0 mm 4 m/s 732 mmHg 87%
    18:00 -9°C° 0 mm 4 m/s 733 mmHg 87%
    19:00 -8°C° 0 mm 4 m/s 733 mmHg 88%
    20:00 -8°C° 0 mm 4 m/s 733 mmHg 88%
    21:00 -8°C° 0 mm 4 m/s 734 mmHg 88%
    22:00 -8°C° 0 mm 4 m/s 734 mmHg 89%
    23:00 -9°C° 0 mm 4 m/s 734 mmHg 89%

    20 Ianuarie, Duminică

    Timp Temperatura Precipitaţii Vânt Presiune Umiditate
    00:00 -9°C° 0 mm 4 m/s 734 mmHg 91%
    01:00 -9°C° 0 mm 3 m/s 735 mmHg 92%
    02:00 -10°C° 0 mm 3 m/s 735 mmHg 93%
    03:00 -10°C° 0 mm 3 m/s 735 mmHg 93%
    04:00 -10°C° 0 mm 3 m/s 735 mmHg 93%
    05:00 -10°C° 0 mm 3 m/s 735 mmHg 93%
    06:00 -10°C° 0 mm 3 m/s 735 mmHg 93%
    07:00 -10°C° 0 mm 3 m/s 735 mmHg 93%
    08:00 -10°C° 0 mm 3 m/s 735 mmHg 92%
    09:00 -10°C° 0 mm 3 m/s 736 mmHg 92%
    10:00 -11°C° 0 mm 4 m/s 736 mmHg 92%
    11:00 -10°C° 0 mm 4 m/s 736 mmHg 92%
    12:00 -10°C° 0 mm 4 m/s 736 mmHg 92%
    13:00 -9°C° 0 mm 3 m/s 736 mmHg 92%
    14:00 -9°C° 0 mm 3 m/s 736 mmHg 93%
    15:00 -9°C° 0.1 mm 3 m/s 736 mmHg 93%
    16:00 -9°C° 0.1 mm 3 m/s 736 mmHg 93%
    17:00 -9°C° 0.1 mm 3 m/s 736 mmHg 93%
    18:00 -9°C° 0.1 mm 3 m/s 736 mmHg 93%
    19:00 -9°C° 0.1 mm 3 m/s 736 mmHg 93%
    20:00 -9°C° 0.1 mm 3 m/s 736 mmHg 93%
    21:00 -9°C° 0.1 mm 2 m/s 736 mmHg 94%
    22:00 -9°C° 0.1 mm 2 m/s 736 mmHg 94%
    23:00 -9°C° 0.1 mm 2 m/s 736 mmHg 94%

    21 Ianuarie, Luni

    Timp Temperatura Precipitaţii Vânt Presiune Umiditate
    00:00 -10°C° 0 mm 2 m/s 736 mmHg 95%
    01:00 -12°C° 0 mm 2 m/s 736 mmHg 96%
    02:00 -13°C° 0 mm 2 m/s 736 mmHg 97%
    03:00 -13°C° 0 mm 2 m/s 736 mmHg 97%
    04:00 -11°C° 0 mm 1 m/s 736 mmHg 97%
    05:00 -11°C° 0 mm 1 m/s 736 mmHg 97%
    06:00 -11°C° 0 mm 1 m/s 736 mmHg 96%
    07:00 -11°C° 0 mm 1 m/s 736 mmHg 96%
    08:00 -11°C° 0 mm 1 m/s 736 mmHg 95%
    09:00 -10°C° 0 mm 1 m/s 736 mmHg 94%
    10:00 -10°C° 0 mm 1 m/s 736 mmHg 93%
    11:00 -9°C° 0 mm 1 m/s 736 mmHg 92%
    12:00 -9°C° 0 mm 1 m/s 736 mmHg 91%
    13:00 -8°C° 0 mm 1 m/s 736 mmHg 89%
    14:00 -8°C° 0 mm 1 m/s 736 mmHg 88%
    15:00 -9°C° 0 mm 1 m/s 736 mmHg 90%
    16:00 -9°C° 0 mm 1 m/s 736 mmHg 91%
    17:00 -10°C° 0 mm 1 m/s 736 mmHg 93%
    18:00 -10°C° 0 mm 1 m/s 736 mmHg 93%
    19:00 -10°C° 0 mm 1 m/s 736 mmHg 94%
    20:00 -11°C° 0 mm 1 m/s 736 mmHg 95%
    21:00 -12°C° 0 mm 1 m/s 736 mmHg 95%
    22:00 -15°C° 0 mm 2 m/s 736 mmHg 96%
    23:00 -16°C° 0 mm 2 m/s 736 mmHg 97%
    Arată mai mult